Columbia Owens, SC

7:23 PM EDT on July 25, 2017 (GMT -0400)
Columbia Owens Downtown

Weather History for KCUB - August, 2013

Change the Weather History Date:

Saturday, August 31, 2013

  Actual Average Record
Temperature  
Mean Temperature 81 °F 79 °F  
Max Temperature 90 °F 89 °F 96 °F (2014)
Min Temperature 72 °F 70 °F 60 °F (1999)
Degree Days  
Heating Degree Days 0 0  
Month to date heating degree days 0 0  
Since 1 June heating degree days 0 0  
Since 1 July heating degree days 0 0  
Cooling Degree Days 16 14  
Month to date cooling degree days 461 502  
Year to date cooling degree days 1728 1818  
Since 1 June cooling degree days 1418 1482  
Growing Degree Days 30 (Base 50)    
Moisture  
Dew Point 72 °F    
Average Humidity 84    
Maximum Humidity 100    
Minimum Humidity 56    
Precipitation  
Precipitation T in 0.11 in 1.38 in (2006)
Month to date precipitation 7.99 4.94  
Year to date precipitation 42.89 31.85  
Sea Level Pressure  
Sea Level Pressure 29.96 in    
Wind  
Wind Speed 1 mph (SE)    
Max Wind Speed 12 mph    
Max Gust Speed 18 mph    
Visibility 8 miles    
Events Rain    
T = Trace of Precipitation, MM = Missing Value Source: NWS Daily Summary

Daily Weather History Graph

Daily Weather History Graph

Search for Another Location

Airport or City:

Trip Planner

Search our weather history database for the weather conditions in past years. The results will help you decide how hot, cold, wet, or windy it might be!

Date:

Astronomy

Aug. 31, 2013 Rise Set
Actual Time 6:57 AM EDT 7:50 PM EDT
Civil Twilight 6:31 AM EDT 8:16 PM EDT
Nautical Twilight 6:01 AM EDT 8:46 PM EDT
Astronomical Twilight 5:30 AM EDT 9:17 PM EDT
Moon 2:32 AM EDT (8/31) 4:41 PM EDT (8/31)
Length of Visible Light 13h 44m
Length of Day
12h 53m
Waning Crescent, 21% of the Moon is Illuminated
Aug 31
Waning Crescent
Sep 5
New
Sep 12
First Quarter
Sep 19
Full
Sep 26
Last Quarter

Hourly Weather History & Observations

Time (EDT) Temp. Heat Index Dew Point Humidity Pressure Visibility Wind Dir Wind Speed Gust Speed Precip Events Conditions
12:53 AM 75.0 °F - 71.1 °F 87% 29.97 in 10.0 mi Calm Calm - N/A   Scattered Clouds
1:53 AM 73.9 °F - 71.1 °F 91% 29.97 in 9.0 mi Calm Calm - N/A   Scattered Clouds
2:12 AM 73.4 °F - 71.6 °F 94% 29.97 in 9.0 mi Calm Calm - N/A   Mostly Cloudy
2:53 AM 73.9 °F - 71.1 °F 91% 29.96 in 9.0 mi Calm Calm - N/A   Mostly Cloudy
3:02 AM 73.4 °F - 71.6 °F 94% 29.97 in 8.0 mi Calm Calm - N/A   Scattered Clouds
3:53 AM 73.0 °F - 71.1 °F 93% 29.96 in 7.0 mi Calm Calm - N/A   Clear
4:13 AM 73.4 °F - 71.6 °F 94% 29.97 in 8.0 mi Calm Calm - N/A   Mostly Cloudy
4:40 AM 73.4 °F - 71.6 °F 94% 29.96 in 7.0 mi Calm Calm - N/A   Scattered Clouds
4:53 AM 73.0 °F - 71.1 °F 93% 29.95 in 6.0 mi Calm Calm - N/A   Clear
5:53 AM 72.0 °F - 71.1 °F 97% 29.95 in 7.0 mi Calm Calm - N/A   Clear
6:53 AM 72.0 °F - 70.0 °F 93% 29.97 in 6.0 mi Calm Calm - N/A   Clear
7:23 AM 71.6 °F - 69.8 °F 94% 29.99 in 5.0 mi Calm Calm - N/A   Scattered Clouds
7:31 AM 71.6 °F - 71.6 °F 100% 29.99 in 5.0 mi Calm Calm - N/A   Mostly Cloudy
7:53 AM 72.0 °F - 71.1 °F 97% 29.99 in 3.0 mi Calm Calm - N/A   Overcast
8:05 AM 73.4 °F - 71.6 °F 94% 29.99 in 1.5 mi Calm Calm - N/A   Overcast
8:09 AM 73.4 °F - 71.6 °F 94% 30.00 in 0.8 mi Calm Calm - N/A   Overcast
8:38 AM 73.4 °F - 71.6 °F 94% 30.00 in 1.0 mi Calm Calm - N/A   Overcast
8:45 AM 73.4 °F - 71.6 °F 94% 30.00 in 1.5 mi Calm Calm - N/A   Overcast
8:53 AM 73.0 °F - 72.0 °F 96% 30.00 in 3.0 mi SSE 3.5 mph - N/A   Overcast
9:53 AM 75.0 °F - 73.0 °F 94% 30.00 in 4.0 mi Calm Calm - N/A   Overcast
10:21 AM 77.0 °F - 73.4 °F 89% 30.01 in 7.0 mi Calm Calm - N/A   Overcast
10:53 AM 79.0 °F - 73.0 °F 82% 30.00 in 7.0 mi South 5.8 mph - N/A   Mostly Cloudy
11:07 AM 80.6 °F 85.4 °F 73.4 °F 79% 30.01 in 9.0 mi Variable 3.5 mph - N/A   Mostly Cloudy
11:39 AM 80.6 °F 85.4 °F 73.4 °F 79% 30.00 in 10.0 mi Calm Calm - N/A   Mostly Cloudy
11:49 AM 82.4 °F 88.2 °F 73.4 °F 74% 29.99 in 10.0 mi ESE 3.5 mph - N/A   Scattered Clouds
11:53 AM 82.9 °F 88.8 °F 73.0 °F 72% 29.98 in 10.0 mi Calm Calm - N/A   Scattered Clouds
12:53 PM 84.9 °F 90.7 °F 72.0 °F 65% 29.98 in 10.0 mi Variable 3.5 mph - N/A   Scattered Clouds
1:35 PM 87.8 °F 93.8 °F 71.6 °F 58% 29.97 in 10.0 mi Calm Calm - N/A   Mostly Cloudy
1:42 PM 86.0 °F 91.8 °F 71.6 °F 62% 29.97 in 10.0 mi East 3.5 mph - N/A   Scattered Clouds
1:53 PM 87.1 °F 93.6 °F 72.0 °F 61% 29.96 in 10.0 mi SE 3.5 mph - N/A   Mostly Cloudy
2:53 PM 89.1 °F 95.0 °F 71.1 °F 55% 29.93 in 10.0 mi ESE 3.5 mph - N/A   Scattered Clouds
3:53 PM 88.0 °F 93.8 °F 71.1 °F 57% 29.90 in 10.0 mi Variable 4.6 mph - N/A   Mostly Cloudy
4:53 PM 78.1 °F - 73.0 °F 84% 29.91 in 7.0 mi Variable 3.5 mph - 0.00 in Rain Light Rain
5:53 PM 82.9 °F 89.4 °F 73.9 °F 74% 29.91 in 10.0 mi Calm Calm - 0.00 in   Clear
6:53 PM 82.9 °F 90.8 °F 75.9 °F 79% 29.91 in 10.0 mi South 4.6 mph - N/A   Mostly Cloudy
7:53 PM 81.0 °F 86.2 °F 73.9 °F 79% 29.90 in 10.0 mi Calm Calm - N/A   Clear
8:53 PM 78.1 °F - 72.0 °F 81% 29.91 in 10.0 mi Calm Calm - N/A   Clear
9:53 PM 79.0 °F - 72.0 °F 79% 29.94 in 10.0 mi Calm Calm - N/A   Scattered Clouds
10:53 PM 77.0 °F - 72.0 °F 84% 29.93 in 10.0 mi Calm Calm - N/A   Clear
11:53 PM 75.9 °F - 73.0 °F 91% 29.92 in 10.0 mi Calm Calm - N/A   Clear